Location: Basses Si�yes
(44.0835°N, 6.2037°E)
Time: 21:41:36
(UTC+00:00)

Cosmos 1092 Rocket - Pass Details

Date: 27 February 2020
Orbit: 955 x 994 km, 82.9° (Epoch: 29 March)

Event Time Altitude Azimuth Distance (km) Brightness Sun altitude
Rises 18:45:16 0° 357° (N) 3,722 7.1 -16.1°
Reaches altitude 10° 18:47:56 10° 3° (N) 2,770 6.4 -16.5°
Maximum altitude 18:54:01 45° 76° (ENE) 1,328 4.3 -17.6°
Enters shadow 18:58:48 16° 143° (SE) 2,333 5.6 -18.5°
